M I D A S
Marine Information and Data Acquisition System
Tripno 1569 of the Zeeleeuw from 2008-09-18 06:54:27 to 2008-09-18 15:29:25
Back to CruiseResearch ActivitiesStationsMapUnderway DataData graphs

EquipmentUnitsComment
TimeDGPSUTC
LatitudeDGPSDM.mWGS84
LongitudeDGPSDM.mWGS84
TemperatureSBE03/SBE38deg celciusITS90
ConductivitySBE21S/mITS90
SalinitySBE21 Practical Salinity Units
ChlorophylAChelsea fluorimeterg/lCalibrated in Aceton
Missing or incorrect values are displayed as -999
Sea surface data collected by the RV Zeeleeuw from 2008-09-18 06:54:27 to 2008-09-18 15:29:25
Time Latitude Longitude Temperature Conductivity Salinity ChlorophylA
2008-09-18 06:56:30 51°13.622 2°56.047 -999 -999 -999 -999
2008-09-18 06:58:30 51°13.667 2°55.882 -999 -999 -999 -999
2008-09-18 07:00:30 51°13.698 2°55.739 -999 -999 -999 -999
2008-09-18 07:02:30 51°13.725 2°55.72 -999 -999 -999 -999
2008-09-18 07:04:30 51°13.913 2°55.57 -999 -999 -999 -999
2008-09-18 07:06:30 51°14.099 2°55.426 -999 -999 -999 -999
2008-09-18 07:08:30 51°14.316 2°55.158 -999 -999 -999 -999
2008-09-18 07:10:30 51°14.562 2°54.795 -999 -999 -999 -999
2008-09-18 07:12:30 51°14.888 2°54.432 -999 -999 -999 -999
2008-09-18 07:14:30 51°15.234 2°54.134 -999 -999 -999 -999
2008-09-18 07:16:30 51°15.587 2°53.84 -999 -999 -999 -999
2008-09-18 07:18:30 51°15.942 2°53.531 -999 -999 -999 -999
2008-09-18 07:20:30 51°16.287 2°53.185 -999 -999 -999 -999
2008-09-18 07:22:30 51°16.645 2°52.875 -999 -999 -999 -999
2008-09-18 07:24:30 51°17.005 2°52.623 -999 -999 -999 -999
2008-09-18 07:26:30 51°17.384 2°52.486 -999 -999 -999 -999
2008-09-18 07:28:30 51°17.766 2°52.441 -999 -999 -999 -999
2008-09-18 07:30:30 51°18.145 2°52.5 -999 -999 -999 -999
2008-09-18 07:32:30 51°18.514 2°52.6 -999 -999 -999 -999
2008-09-18 07:34:30 51°18.892 2°52.698 -999 -999 -999 -999
2008-09-18 07:36:30 51°19.254 2°52.855 -999 -999 -999 -999
2008-09-18 07:38:30 51°19.601 2°53.065 -999 -999 -999 -999
2008-09-18 07:40:30 51°19.944 2°53.243 -999 -999 -999 -999
2008-09-18 07:42:30 51°20.308 2°53.377 -999 -999 -999 -999
2008-09-18 07:44:30 51°20.66 2°53.541 -999 -999 -999 -999
2008-09-18 07:46:30 51°21.015 2°53.694 -999 -999 -999 -999
2008-09-18 07:48:30 51°21.374 2°53.85 -999 -999 -999 -999
2008-09-18 07:50:30 51°21.732 2°54.02 -999 -999 -999 -999
2008-09-18 07:52:30 51°22.085 2°54.218 -999 -999 -999 -999
2008-09-18 07:54:30 51°22.434 2°54.428 -999 -999 -999 -999
2008-09-18 07:56:30 51°22.783 2°54.637 -999 -999 -999 -999
2008-09-18 07:58:30 51°23.13 2°54.846 -999 -999 -999 -999
2008-09-18 08:00:30 51°23.471 2°55.067 -999 -999 -999 -999
2008-09-18 08:02:30 51°23.815 2°55.29 -999 -999 -999 -999
2008-09-18 08:04:30 51°24.154 2°55.504 -999 -999 -999 -999
2008-09-18 08:06:30 51°24.498 2°55.718 -999 -999 -999 -999
2008-09-18 08:08:30 51°24.839 2°55.949 -999 -999 -999 -999
2008-09-18 08:10:30 51°25.18 2°56.164 -999 -999 -999 -999
2008-09-18 08:12:30 51°25.509 2°56.388 -999 -999 -999 -999
2008-09-18 08:14:30 51°25.837 2°56.601 -999 -999 -999 -999
2008-09-18 08:16:30 51°26.168 2°56.815 -999 -999 -999 -999
2008-09-18 08:18:30 51°26.505 2°57.003 -999 -999 -999 -999
2008-09-18 08:20:30 51°26.839 2°57.21 -999 -999 -999 -999
2008-09-18 08:22:30 51°27.173 2°57.413 -999 -999 -999 -999
2008-09-18 08:24:30 51°27.489 2°57.67 -999 -999 -999 -999
2008-09-18 08:26:30 51°27.799 2°57.927 -999 -999 -999 -999
2008-09-18 08:28:30 51°28.106 2°58.195 -999 -999 -999 -999
2008-09-18 08:30:30 51°28.417 2°58.446 -999 -999 -999 -999
2008-09-18 08:32:30 51°28.732 2°58.7 -999 -999 -999 -999
2008-09-18 08:34:30 51°29.009 2°59.025 -999 -999 -999 -999
2008-09-18 08:36:30 51°29.187 2°59.497 -999 -999 -999 -999
2008-09-18 08:38:30 51°29.385 2°59.942 -999 -999 -999 -999
2008-09-18 08:40:30 51°29.61 3°0.356 -999 -999 -999 -999
2008-09-18 08:42:30 51°29.844 3°0.75 -999 -999 -999 -999
2008-09-18 08:44:30 51°30.099 3°1.111 -999 -999 -999 -999
2008-09-18 08:46:30 51°30.398 3°1.375 -999 -999 -999 -999
2008-09-18 08:48:30 51°30.645 3°1.651 -999 -999 -999 -999
2008-09-18 08:50:30 51°30.701 3°1.698 -999 -999 -999 -999
2008-09-18 08:52:30 51°30.683 3°1.634 -999 -999 -999 -999
2008-09-18 08:54:30 51°30.677 3°1.627 -999 -999 -999 -999
2008-09-18 08:56:30 51°30.675 3°1.627 -999 -999 -999 -999
2008-09-18 08:58:30 51°30.676 3°1.623 -999 -999 -999 -999
2008-09-18 09:00:30 51°30.675 3°1.625 -999 -999 -999 -999
2008-09-18 09:02:30 51°30.675 3°1.627 -999 -999 -999 -999
2008-09-18 09:04:30 51°30.676 3°1.625 -999 -999 -999 -999
2008-09-18 09:06:30 51°30.676 3°1.624 -999 -999 -999 -999
2008-09-18 09:08:30 51°30.677 3°1.622 -999 -999 -999 -999
2008-09-18 09:10:30 51°30.679 3°1.621 -999 -999 -999 -999
2008-09-18 09:12:30 51°30.676 3°1.624 -999 -999 -999 -999
2008-09-18 09:14:30 51°30.675 3°1.623 -999 -999 -999 -999
2008-09-18 09:16:30 51°30.676 3°1.623 -999 -999 -999 -999
2008-09-18 09:18:30 51°30.675 3°1.624 -999 -999 -999 -999
2008-09-18 09:20:30 51°30.676 3°1.623 -999 -999 -999 -999
2008-09-18 09:22:30 51°30.676 3°1.624 -999 -999 -999 -999
2008-09-18 09:24:30 51°30.677 3°1.624 -999 -999 -999 -999
2008-09-18 09:26:30 51°30.678 3°1.624 -999 -999 -999 -999
2008-09-18 09:28:30 51°30.676 3°1.625 -999 -999 -999 -999
2008-09-18 09:30:30 51°30.677 3°1.625 -999 -999 -999 -999
2008-09-18 09:32:30 51°30.675 3°1.625 -999 -999 -999 -999
2008-09-18 09:34:30 51°30.675 3°1.626 -999 -999 -999 -999
2008-09-18 09:36:30 51°30.675 3°1.626 -999 -999 -999 -999
2008-09-18 09:38:30 51°30.675 3°1.626 -999 -999 -999 -999
2008-09-18 09:40:30 51°30.677 3°1.624 -999 -999 -999 -999
2008-09-18 09:42:30 51°30.676 3°1.625 -999 -999 -999 -999
2008-09-18 09:44:30 51°30.675 3°1.625 -999 -999 -999 -999
2008-09-18 09:46:30 51°30.677 3°1.634 -999 -999 -999 -999
2008-09-18 09:48:30 51°30.689 3°1.676 -999 -999 -999 -999
2008-09-18 09:50:30 51°30.697 3°1.687 -999 -999 -999 -999
2008-09-18 09:52:30 51°30.745 3°1.605 -999 -999 -999 -999
2008-09-18 09:54:30 51°31.008 3°1.194 -999 -999 -999 -999
2008-09-18 09:56:30 51°31.315 3°0.783 -999 -999 -999 -999
2008-09-18 09:58:30 51°31.62 3°0.358 -999 -999 -999 -999
2008-09-18 10:00:30 51°31.919 2°59.928 -999 -999 -999 -999
2008-09-18 10:02:30 51°32.12 2°59.8 -999 -999 -999 -999
2008-09-18 10:04:30 51°32.167 2°59.769 -999 -999 -999 -999
2008-09-18 10:06:30 51°32.153 2°59.727 -999 -999 -999 -999
2008-09-18 10:08:30 51°32.149 2°59.733 -999 -999 -999 -999
2008-09-18 10:10:30 51°32.147 2°59.737 -999 -999 -999 -999
2008-09-18 10:12:30 51°32.147 2°59.734 -999 -999 -999 -999
2008-09-18 10:14:30 51°32.149 2°59.732 -999 -999 -999 -999
2008-09-18 10:16:30 51°32.15 2°59.731 -999 -999 -999 -999
2008-09-18 10:18:30 51°32.148 2°59.733 -999 -999 -999 -999
2008-09-18 10:20:30 51°32.147 2°59.734 -999 -999 -999 -999
2008-09-18 10:22:30 51°32.148 2°59.732 -999 -999 -999 -999
2008-09-18 10:24:30 51°32.146 2°59.736 -999 -999 -999 -999
2008-09-18 10:26:30 51°32.144 2°59.738 -999 -999 -999 -999
2008-09-18 10:28:30 51°32.144 2°59.738 -999 -999 -999 -999
2008-09-18 10:30:30 51°32.144 2°59.738 -999 -999 -999 -999
2008-09-18 10:32:30 51°32.145 2°59.736 -999 -999 -999 -999
2008-09-18 10:34:30 51°32.145 2°59.733 -999 -999 -999 -999
2008-09-18 10:36:30 51°32.146 2°59.733 -999 -999 -999 -999
2008-09-18 10:38:30 51°32.145 2°59.735 -999 -999 -999 -999
2008-09-18 10:40:30 51°32.144 2°59.738 -999 -999 -999 -999
2008-09-18 10:42:30 51°32.144 2°59.737 -999 -999 -999 -999
2008-09-18 10:44:30 51°32.145 2°59.737 -999 -999 -999 -999
2008-09-18 10:46:30 51°32.146 2°59.733 -999 -999 -999 -999
2008-09-18 10:48:30 51°32.146 2°59.734 -999 -999 -999 -999
2008-09-18 10:50:30 51°32.145 2°59.736 -999 -999 -999 -999
2008-09-18 10:52:30 51°32.146 2°59.735 -999 -999 -999 -999
2008-09-18 10:54:30 51°32.145 2°59.735 -999 -999 -999 -999
2008-09-18 10:56:30 51°32.145 2°59.738 -999 -999 -999 -999
2008-09-18 10:58:30 51°32.144 2°59.741 -999 -999 -999 -999
2008-09-18 11:00:30 51°32.15 2°59.749 -999 -999 -999 -999
2008-09-18 11:02:30 51°32.158 2°59.762 -999 -999 -999 -999
2008-09-18 11:04:30 51°32.165 2°59.78 -999 -999 -999 -999
2008-09-18 11:06:30 51°32.152 2°59.751 -999 -999 -999 -999
2008-09-18 11:08:30 51°32.27 2°59.661 -999 -999 -999 -999
2008-09-18 11:10:30 51°32.584 2°59.336 -999 -999 -999 -999
2008-09-18 11:12:30 51°32.863 2°58.903 -999 -999 -999 -999
2008-09-18 11:14:30 51°33.069 2°58.387 -999 -999 -999 -999
2008-09-18 11:16:30 51°33.253 2°57.865 -999 -999 -999 -999
2008-09-18 11:18:30 51°33.317 2°57.747 -999 -999 -999 -999
2008-09-18 11:20:30 51°33.302 2°57.714 -999 -999 -999 -999
2008-09-18 11:22:30 51°33.288 2°57.693 -999 -999 -999 -999
2008-09-18 11:24:30 51°33.289 2°57.698 -999 -999 -999 -999
2008-09-18 11:26:30 51°33.29 2°57.698 -999 -999 -999 -999
2008-09-18 11:28:30 51°33.289 2°57.695 -999 -999 -999 -999
2008-09-18 11:30:30 51°33.29 2°57.697 -999 -999 -999 -999
2008-09-18 11:32:30 51°33.288 2°57.698 -999 -999 -999 -999
2008-09-18 11:34:30 51°33.288 2°57.7 -999 -999 -999 -999
2008-09-18 11:36:30 51°33.288 2°57.698 -999 -999 -999 -999
2008-09-18 11:38:30 51°33.289 2°57.697 -999 -999 -999 -999
2008-09-18 11:40:30 51°33.288 2°57.698 -999 -999 -999 -999
2008-09-18 11:42:30 51°33.289 2°57.697 -999 -999 -999 -999
2008-09-18 11:44:30 51°33.289 2°57.695 -999 -999 -999 -999
2008-09-18 11:46:30 51°33.289 2°57.695 -999 -999 -999 -999
2008-09-18 11:48:30 51°33.288 2°57.695 -999 -999 -999 -999
2008-09-18 11:50:30 51°33.291 2°57.693 -999 -999 -999 -999
2008-09-18 11:52:30 51°33.288 2°57.696 -999 -999 -999 -999
2008-09-18 11:54:30 51°33.286 2°57.703 -999 -999 -999 -999
2008-09-18 11:56:30 51°33.287 2°57.698 -999 -999 -999 -999
2008-09-18 11:58:30 51°33.288 2°57.701 -999 -999 -999 -999
2008-09-18 13:00:30 51°33.967 2°54.713 -999 -999 -999 -999
2008-09-18 13:02:30 51°33.967 2°54.721 -999 -999 -999 -999
2008-09-18 13:04:30 51°33.967 2°54.728 -999 -999 -999 -999
2008-09-18 13:06:30 51°33.968 2°54.738 -999 -999 -999 -999
2008-09-18 13:08:30 51°33.973 2°54.747 -999 -999 -999 -999
2008-09-18 13:10:30 51°33.979 2°54.757 -999 -999 -999 -999
2008-09-18 13:12:30 51°33.986 2°54.765 -999 -999 -999 -999
2008-09-18 13:14:30 51°33.996 2°54.772 -999 -999 -999 -999
2008-09-18 13:16:30 51°34.002 2°54.781 -999 -999 -999 -999
2008-09-18 13:18:30 51°34.009 2°54.781 -999 -999 -999 -999
2008-09-18 13:20:30 51°34.017 2°54.779 -999 -999 -999 -999
2008-09-18 13:22:30 51°34.023 2°54.78 -999 -999 -999 -999
2008-09-18 13:24:30 51°34.026 2°54.778 -999 -999 -999 -999
2008-09-18 13:26:30 51°34.028 2°54.767 -999 -999 -999 -999
2008-09-18 13:28:30 51°34.025 2°54.756 -999 -999 -999 -999
2008-09-18 13:30:30 51°34.008 2°54.731 -999 -999 -999 -999
2008-09-18 13:32:30 51°33.994 2°54.744 -999 -999 -999 -999
2008-09-18 13:34:30 51°33.972 2°54.77 -999 -999 -999 -999
2008-09-18 13:36:30 51°33.947 2°54.819 -999 -999 -999 -999
2008-09-18 13:38:30 51°33.715 2°54.735 -999 -999 -999 -999
2008-09-18 13:40:30 51°33.361 2°54.574 -999 -999 -999 -999
2008-09-18 13:42:30 51°33.021 2°54.374 -999 -999 -999 -999
2008-09-18 13:44:30 51°32.663 2°54.338 -999 -999 -999 -999
2008-09-18 13:46:30 51°32.289 2°54.349 -999 -999 -999 -999
2008-09-18 13:48:30 51°31.918 2°54.323 -999 -999 -999 -999
2008-09-18 13:50:30 51°31.547 2°54.308 -999 -999 -999 -999
2008-09-18 13:52:30 51°31.179 2°54.284 -999 -999 -999 -999
2008-09-18 13:54:30 51°30.813 2°54.267 -999 -999 -999 -999
2008-09-18 13:56:30 51°30.444 2°54.245 -999 -999 -999 -999
2008-09-18 13:58:30 51°30.072 2°54.235 -999 -999 -999 -999
2008-09-18 14:00:30 51°29.71 2°54.222 -999 -999 -999 -999
2008-09-18 14:02:30 51°29.354 2°54.199 -999 -999 -999 -999
2008-09-18 14:04:30 51°28.998 2°54.352 -999 -999 -999 -999
2008-09-18 14:06:30 51°28.66 2°54.65 -999 -999 -999 -999
2008-09-18 14:08:30 51°28.32 2°54.943 -999 -999 -999 -999
2008-09-18 14:10:30 51°27.964 2°55.135 -999 -999 -999 -999
2008-09-18 14:12:30 51°27.604 2°55.182 -999 -999 -999 -999
2008-09-18 14:14:30 51°27.25 2°55.095 -999 -999 -999 -999
2008-09-18 14:16:30 51°26.895 2°55.042 -999 -999 -999 -999
2008-09-18 14:18:30 51°26.545 2°54.99 -999 -999 -999 -999
2008-09-18 14:20:30 51°26.191 2°54.938 -999 -999 -999 -999
2008-09-18 14:22:30 51°25.834 2°54.879 -999 -999 -999 -999
2008-09-18 14:24:30 51°25.473 2°54.82 -999 -999 -999 -999
2008-09-18 14:26:30 51°25.11 2°54.751 -999 -999 -999 -999
2008-09-18 14:28:30 51°24.748 2°54.69 -999 -999 -999 -999
2008-09-18 14:30:30 51°24.389 2°54.633 -999 -999 -999 -999
2008-09-18 14:32:30 51°24.037 2°54.569 -999 -999 -999 -999
2008-09-18 14:34:30 51°23.685 2°54.488 -999 -999 -999 -999
2008-09-18 14:36:30 51°23.341 2°54.413 -999 -999 -999 -999
2008-09-18 14:38:30 51°22.998 2°54.342 -999 -999 -999 -999
2008-09-18 14:40:30 51°22.655 2°54.27 -999 -999 -999 -999
2008-09-18 14:42:30 51°22.308 2°54.172 -999 -999 -999 -999
2008-09-18 14:44:30 51°21.958 2°54.07 -999 -999 -999 -999
2008-09-18 14:46:30 51°21.604 2°53.951 -999 -999 -999 -999
2008-09-18 14:48:30 51°21.247 2°53.831 -999 -999 -999 -999
2008-09-18 14:50:30 51°20.889 2°53.711 -999 -999 -999 -999
2008-09-18 14:52:30 51°20.536 2°53.591 -999 -999 -999 -999
2008-09-18 14:54:30 51°20.193 2°53.469 -999 -999 -999 -999
2008-09-18 14:56:30 51°19.851 2°53.329 -999 -999 -999 -999
2008-09-18 14:58:30 51°19.508 2°53.184 -999 -999 -999 -999
2008-09-18 15:00:30 51°19.167 2°53.036 -999 -999 -999 -999
2008-09-18 15:02:30 51°18.822 2°52.871 -999 -999 -999 -999
2008-09-18 15:04:30 51°18.474 2°52.711 -999 -999 -999 -999
2008-09-18 15:06:30 51°18.13 2°52.551 -999 -999 -999 -999
2008-09-18 15:08:30 51°17.78 2°52.427 -999 -999 -999 -999
2008-09-18 15:10:30 51°17.422 2°52.347 -999 -999 -999 -999
2008-09-18 15:12:30 51°17.056 2°52.356 -999 -999 -999 -999
2008-09-18 15:14:30 51°16.697 2°52.513 -999 -999 -999 -999
2008-09-18 15:16:30 51°16.354 2°52.767 -999 -999 -999 -999
2008-09-18 15:18:30 51°16.003 2°53.017 -999 -999 -999 -999
2008-09-18 15:20:30 51°15.662 2°53.291 -999 -999 -999 -999
2008-09-18 15:22:30 51°15.333 2°53.626 -999 -999 -999 -999
2008-09-18 15:24:30 51°15.02 2°53.99 -999 -999 -999 -999
2008-09-18 15:26:30 51°14.722 2°54.395 -999 -999 -999 -999
2008-09-18 15:28:30 51°14.451 2°54.851 -999 -999 -999 -999